Location: London
(51.5074°N, 0.1278°W)
Time: 16:55:55
(UTC+01:00)

Envisat - Pass Details

Date: 27 September 2021
Orbit: 764 x 766 km, 98.2° (Epoch: 19 October)

Event Time Altitude Azimuth Distance (km) Brightness Sun altitude
Rises 05:21:00 0° 22° (NNE) 3,245 6.8 -15.2°
Reaches altitude 10° 05:23:39 10° 34° (NE) 2,313 6.2 -14.8°
Maximum altitude 05:28:00 28° 93° (E) 1,419 5.2 -14.2°
Drops below altitude 10° 05:32:18 10° 151° (SSE) 2,297 5.6 -13.5°
Sets 05:34:55 0° 163° (SSE) 3,218 6.3 -13.2°
